Regional Weather Roundup
Issued by NWS Goodland, KS

Home | Current Version | Previous Version | Graphics & Text | Print | Product List | Glossary On
Versions: 1 2 3 4 5 6 7 8 9 10 11 12 13 14 15 16 17 18 19 20 21 22 23 24 25 26 27 28 29 30 31 32 33 34 35 36 37 38 39 40 41 42 43 44 45 46 47 48 49 50
000
ASUS43 KGLD 271459
RWRGLD

GOODLAND FORECAST AREA HOURLY WEATHER ROUNDUP
NATIONAL WEATHER SERVICE GOODLAND KS
900 AM MDT TUE JUN 27 2017

...OFFICIAL OBSERVATIONS...

CITY           SKY/WX    TMP DP  RH WIND       PRES   REMARKS
GOODLAND KS    CLOUDY    61  61 100 S10       29.97F FOG
HILL CITY KS   CLOUDY    66  64  93 SE14      29.98F FOG
IMPERIAL NEB   CLOUDY    64  58  80 S16       29.95F
MCCOOK NEB     CLOUDY    63  61  93 S10       29.97F
AKRON CO       SUNNY     73  55  53 SE14G23   29.95F
BURLINGTON CO  SUNNY     70  60  70 S13       29.98F
LIMON CO       SUNNY     68  50  52 S16       30.02F
$$

...UNOFFICIAL OBSERVATIONS...

CITY           SKY/WX    TMP DP  RH WIND       PRES   REMARKS
LENORA KS        N/A     62  32  32 MISG        N/A
NORTON KS      CLOUDY    61  57  88 SE14      29.97F FOG
SHARON SPRINGS   N/A     63  61  94 S8          N/A
TRENTON NEB      N/A     62  32  32 S9          N/A
KIT CARSON CO    N/A     69  59  71 MISG        N/A
YUMA CO        FAIR      64  54  68 SE12      29.95F
$$




USA.gov is the U.S. government's official web portal to all federal, state and local government web resources and services.